Wetterdaten: Freitag, 28.08.2020
Datum Zeit Temp. Auen Feucht Auen Luftdruck Regen Richtung Richtung Windben
28.08.2020 00:00 12,8 C 83 % 1012,9 hPa 0,0 mm S-SW 213 1,6 km/h (1 Bft)
28.08.2020 00:05 12,8 C 83 % 1012,8 hPa 0,0 mm S-SW 213 0,0 km/h (0 Bft)
28.08.2020 00:10 12,7 C 83 % 1012,7 hPa 0,0 mm S-SW 213 0,0 km/h (0 Bft)
28.08.2020 00:15 12,7 C 84 % 1012,7 hPa 0,0 mm S-SW 213 1,6 km/h (1 Bft)
28.08.2020 00:20 12,6 C 84 % 1012,7 hPa 0,0 mm S-SW 213 0,0 km/h (0 Bft)
28.08.2020 00:25 12,6 C 84 % 1012,6 hPa 0,0 mm S-SW 213 0,0 km/h (0 Bft)
28.08.2020 00:30 12,5 C 84 % 1012,5 hPa 0,0 mm S-SW 213 0,0 km/h (0 Bft)
28.08.2020 00:35 12,4 C 84 % 1012,5 hPa 0,0 mm S-SW 213 0,0 km/h (0 Bft)
28.08.2020 00:40 12,3 C 84 % 1012,4 hPa 0,0 mm S-SW 213 0,0 km/h (0 Bft)
28.08.2020 00:45 12,3 C 84 % 1012,4 hPa 0,0 mm S-SW 213 1,6 km/h (1 Bft)
28.08.2020 00:50 12,2 C 84 % 1012,5 hPa 0,0 mm S-SW 213 1,6 km/h (1 Bft)
28.08.2020 00:55 12,2 C 84 % 1012,4 hPa 0,0 mm S-SW 213 0,0 km/h (0 Bft)
28.08.2020 01:00 12,1 C 84 % 1012,4 hPa 0,0 mm S-SW 213 0,0 km/h (0 Bft)
28.08.2020 01:05 12,1 C 84 % 1012,4 hPa 0,0 mm S-SW 213 3,2 km/h (1 Bft)
28.08.2020 01:10 12,0 C 85 % 1012,4 hPa 0,0 mm S-SW 213 0,0 km/h (0 Bft)
28.08.2020 01:15 11,9 C 85 % 1012,3 hPa 0,0 mm S-SW 213 3,2 km/h (1 Bft)
28.08.2020 01:20 11,9 C 85 % 1012,3 hPa 0,0 mm S-SW 213 1,6 km/h (1 Bft)
28.08.2020 01:25 11,8 C 85 % 1012,2 hPa 0,0 mm S-SW 213 3,2 km/h (1 Bft)
28.08.2020 01:30 11,8 C 85 % 1012,0 hPa 0,0 mm S-SW 213 1,6 km/h (1 Bft)
28.08.2020 01:35 11,8 C 85 % 1012,1 hPa 0,0 mm S-SW 213 0,0 km/h (0 Bft)
28.08.2020 01:40 11,7 C 85 % 1012,0 hPa 0,0 mm S-SW 213 1,6 km/h (1 Bft)
28.08.2020 01:45 11,7 C 85 % 1011,9 hPa 0,0 mm S-SW 213 1,6 km/h (1 Bft)
28.08.2020 01:50 11,6 C 85 % 1011,9 hPa 0,0 mm S-SW 213 0,0 km/h (0 Bft)
28.08.2020 01:55 11,6 C 85 % 1011,9 hPa 0,0 mm S-SW 213 0,0 km/h (0 Bft)
28.08.2020 02:00 11,5 C 85 % 1011,8 hPa 0,0 mm S-SW 213 0,0 km/h (0 Bft)
28.08.2020 02:05 11,5 C 86 % 1011,8 hPa 0,0 mm S-SW 213 3,2 km/h (1 Bft)
28.08.2020 02:10 11,4 C 86 % 1011,7 hPa 0,0 mm S-SW 213 3,2 km/h (1 Bft)
28.08.2020 02:15 11,4 C 86 % 1011,6 hPa 0,0 mm S-SW 213 4,8 km/h (1 Bft)
28.08.2020 02:20 11,4 C 86 % 1011,6 hPa 0,0 mm S-SW 213 4,8 km/h (1 Bft)
28.08.2020 02:25 11,4 C 86 % 1011,6 hPa 0,0 mm S-SW 213 4,8 km/h (1 Bft)
28.08.2020 02:30 11,4 C 86 % 1011,6 hPa 0,0 mm S-SW 213 1,6 km/h (1 Bft)
28.08.2020 02:35 11,4 C 86 % 1011,5 hPa 0,0 mm S-SW 213 0,0 km/h (0 Bft)
28.08.2020 02:40 11,4 C 87 % 1011,5 hPa 0,0 mm S-SW 213 1,6 km/h (1 Bft)
28.08.2020 02:45 11,4 C 87 % 1011,5 hPa 0,0 mm S-SW 213 1,6 km/h (1 Bft)
28.08.2020 02:50 11,4 C 86 % 1011,5 hPa 0,0 mm S-SW 213 0,0 km/h (0 Bft)
28.08.2020 02:55 11,4 C 87 % 1011,5 hPa 0,0 mm S-SW 213 0,0 km/h (0 Bft)
28.08.2020 03:00 11,4 C 87 % 1011,5 hPa 0,0 mm S-SW 213 3,2 km/h (1 Bft)
28.08.2020 03:05 11,4 C 87 % 1011,5 hPa 0,0 mm S-SW 213 1,6 km/h (1 Bft)
28.08.2020 03:10 11,4 C 87 % 1011,4 hPa 0,0 mm S-SW 213 0,0 km/h (0 Bft)
28.08.2020 03:15 11,4 C 87 % 1011,3 hPa 0,0 mm S-SW 213 0,0 km/h (0 Bft)
28.08.2020 03:20 11,4 C 87 % 1011,3 hPa 0,0 mm S-SW 213 0,0 km/h (0 Bft)
28.08.2020 03:25 11,4 C 87 % 1011,2 hPa 0,0 mm S-SW 213 0,0 km/h (0 Bft)
28.08.2020 03:30 11,4 C 87 % 1011,1 hPa 0,0 mm S-SW 213 0,0 km/h (0 Bft)
28.08.2020 03:35 11,3 C 87 % 1011,1 hPa 0,0 mm S-SW 213 1,6 km/h (1 Bft)
28.08.2020 03:40 11,3 C 87 % 1011,1 hPa 0,0 mm S-SW 213 3,2 km/h (1 Bft)
28.08.2020 03:45 11,3 C 87 % 1011,1 hPa 0,0 mm S-SW 213 1,6 km/h (1 Bft)
28.08.2020 03:50 11,3 C 87 % 1011,1 hPa 0,0 mm S-SW 213 1,6 km/h (1 Bft)
28.08.2020 03:55 11,3 C 87 % 1010,9 hPa 0,0 mm S-SW 213 0,0 km/h (0 Bft)
28.08.2020 04:00 11,3 C 87 % 1011,0 hPa 0,0 mm S-SW 213 0,0 km/h (0 Bft)
28.08.2020 04:05 11,4 C 87 % 1010,9 hPa 0,0 mm S-SW 213 0,0 km/h (0 Bft)
28.08.2020 04:10 11,4 C 87 % 1010,8 hPa 0,0 mm S-SW 213 0,0 km/h (0 Bft)
28.08.2020 04:15 11,5 C 88 % 1010,8 hPa 0,0 mm S-SW 213 0,0 km/h (0 Bft)
28.08.2020 04:20 11,6 C 88 % 1010,7 hPa 0,0 mm S-SW 213 0,0 km/h (0 Bft)
28.08.2020 04:25 11,7 C 88 % 1010,6 hPa 0,0 mm S-SW 213 0,0 km/h (0 Bft)
28.08.2020 04:30 11,7 C 88 % 1010,6 hPa 0,0 mm S-SW 213 0,0 km/h (0 Bft)
28.08.2020 04:35 11,7 C 88 % 1010,5 hPa 0,0 mm S-SW 213 0,0 km/h (0 Bft)
28.08.2020 04:40 11,8 C 88 % 1010,5 hPa 0,0 mm S-SW 213 0,0 km/h (0 Bft)
28.08.2020 04:45 11,8 C 88 % 1010,5 hPa 0,0 mm S-SW 213 0,0 km/h (0 Bft)
28.08.2020 04:50 11,8 C 88 % 1010,4 hPa 0,0 mm S-SW 213 1,6 km/h (1 Bft)
28.08.2020 04:55 11,8 C 88 % 1010,4 hPa 0,0 mm S-SW 213 0,0 km/h (0 Bft)
28.08.2020 05:00 11,8 C 88 % 1010,3 hPa 0,0 mm S-SW 213 0,0 km/h (0 Bft)
28.08.2020 05:05 11,8 C 88 % 1010,3 hPa 0,0 mm S-SW 213 0,0 km/h (0 Bft)
28.08.2020 05:10 11,7 C 88 % 1010,3 hPa 0,0 mm S-SW 213 0,0 km/h (0 Bft)
28.08.2020 05:15 11,7 C 88 % 1010,2 hPa 0,0 mm S-SW 213 3,2 km/h (1 Bft)
28.08.2020 05:20 11,7 C 88 % 1010,2 hPa 0,0 mm S-SW 213 0,0 km/h (0 Bft)
28.08.2020 05:25 11,7 C 88 % 1010,1 hPa 0,0 mm S-SW 213 0,0 km/h (0 Bft)
28.08.2020 05:30 11,7 C 88 % 1010,1 hPa 0,0 mm S-SW 213 0,0 km/h (0 Bft)
28.08.2020 05:35 11,6 C 88 % 1010,2 hPa 0,0 mm S-SW 213 0,0 km/h (0 Bft)
28.08.2020 05:40 11,6 C 88 % 1010,0 hPa 0,0 mm S-SW 213 0,0 km/h (0 Bft)
28.08.2020 05:45 11,6 C 88 % 1010,0 hPa 0,0 mm S-SW 213 0,0 km/h (0 Bft)
28.08.2020 05:50 11,6 C 88 % 1010,1 hPa 0,0 mm S-SW 213 0,0 km/h (0 Bft)
28.08.2020 05:55 11,5 C 88 % 1010,0 hPa 0,0 mm S-SW 213 0,0 km/h (0 Bft)
28.08.2020 06:00 11,5 C 88 % 1010,1 hPa 0,0 mm S-SW 213 0,0 km/h (0 Bft)
28.08.2020 06:05 11,4 C 88 % 1010,1 hPa 0,0 mm S-SW 213 0,0 km/h (0 Bft)
28.08.2020 06:10 11,4 C 88 % 1010,1 hPa 0,0 mm S-SW 213 0,0 km/h (0 Bft)
28.08.2020 06:15 11,3 C 88 % 1010,1 hPa 0,0 mm S-SW 213 0,0 km/h (0 Bft)
28.08.2020 06:20 11,3 C 88 % 1010,0 hPa 0,0 mm S-SW 213 0,0 km/h (0 Bft)
28.08.2020 06:25 11,2 C 88 % 1010,0 hPa 0,0 mm S-SW 213 0,0 km/h (0 Bft)
28.08.2020 06:30 11,2 C 88 % 1010,0 hPa 0,0 mm S-SW 213 0,0 km/h (0 Bft)
28.08.2020 06:35 11,1 C 88 % 1009,9 hPa 0,0 mm S-SW 213 0,0 km/h (0 Bft)
28.08.2020 06:40 11,1 C 88 % 1009,9 hPa 0,0 mm S-SW 213 0,0 km/h (0 Bft)
28.08.2020 06:45 11,1 C 88 % 1009,9 hPa 0,0 mm S-SW 213 0,0 km/h (0 Bft)
28.08.2020 06:50 11,1 C 88 % 1010,0 hPa 0,0 mm S-SW 213 0,0 km/h (0 Bft)
28.08.2020 06:55 11,1 C 88 % 1010,0 hPa 0,0 mm S-SW 213 0,0 km/h (0 Bft)
28.08.2020 07:00 11,2 C 89 % 1010,0 hPa 0,0 mm S-SW 213 0,0 km/h (0 Bft)
28.08.2020 07:05 11,5 C 89 % 1010,0 hPa 0,0 mm S-SW 213 3,2 km/h (1 Bft)
28.08.2020 07:10 11,8 C 89 % 1009,9 hPa 0,0 mm S-SW 213 3,2 km/h (1 Bft)
28.08.2020 07:15 12,1 C 89 % 1009,8 hPa 0,0 mm S-SW 213 3,2 km/h (1 Bft)
28.08.2020 07:20 12,6 C 90 % 1009,8 hPa 0,0 mm S-SW 213 3,2 km/h (1 Bft)
28.08.2020 07:25 12,9 C 90 % 1009,8 hPa 0,0 mm S-SW 213 0,0 km/h (0 Bft)
28.08.2020 07:30 13,4 C 90 % 1009,7 hPa 0,0 mm S-SW 213 0,0 km/h (0 Bft)
28.08.2020 07:35 13,9 C 90 % 1009,7 hPa 0,0 mm S-SW 213 1,6 km/h (1 Bft)
28.08.2020 07:40 14,5 C 90 % 1009,6 hPa 0,0 mm S-SW 213 1,6 km/h (1 Bft)
28.08.2020 07:45 15,4 C 88 % 1009,6 hPa 0,0 mm S-SW 213 1,6 km/h (1 Bft)
28.08.2020 07:50 15,9 C 86 % 1009,6 hPa 0,0 mm S-SW 213 1,6 km/h (1 Bft)
28.08.2020 07:55 16,2 C 84 % 1009,5 hPa 0,0 mm S-SW 213 0,0 km/h (0 Bft)
28.08.2020 08:00 16,1 C 85 % 1009,5 hPa 0,0 mm S-SW 213 0,0 km/h (0 Bft)
28.08.2020 08:05 16,8 C 85 % 1009,5 hPa 0,0 mm S-SW 213 0,0 km/h (0 Bft)
28.08.2020 08:10 16,4 C 83 % 1009,5 hPa 0,0 mm S-SW 213 0,0 km/h (0 Bft)
28.08.2020 08:15 16,5 C 83 % 1009,5 hPa 0,0 mm S-SW 213 0,0 km/h (0 Bft)
28.08.2020 08:20 16,4 C 84 % 1009,5 hPa 0,0 mm S-SW 213 0,0 km/h (0 Bft)
28.08.2020 08:25 16,3 C 85 % 1009,5 hPa 0,0 mm S-SW 213 0,0 km/h (0 Bft)
28.08.2020 08:30 16,4 C 85 % 1009,4 hPa 0,0 mm S-SW 213 0,0 km/h (0 Bft)
28.08.2020 08:35 16,9 C 85 % 1009,4 hPa 0,0 mm S-SW 213 0,0 km/h (0 Bft)
28.08.2020 08:40 16,9 C 84 % 1009,3 hPa 0,0 mm S-SW 213 3,2 km/h (1 Bft)
28.08.2020 08:45 17,4 C 85 % 1009,4 hPa 0,0 mm SO 134 4,8 km/h (1 Bft)
28.08.2020 08:50 17,7 C 84 % 1009,3 hPa 0,0 mm SO 139 9,7 km/h (2 Bft)
28.08.2020 08:55 17,8 C 82 % 1009,2 hPa 0,0 mm SO 139 6,4 km/h (2 Bft)
28.08.2020 09:00 17,8 C 82 % 1009,2 hPa 0,0 mm SO 128 6,4 km/h (2 Bft)
28.08.2020 09:05 18,0 C 82 % 1009,2 hPa 0,0 mm SO 138 6,4 km/h (2 Bft)
28.08.2020 09:10 18,3 C 81 % 1009,1 hPa 0,0 mm SO 138 6,4 km/h (2 Bft)
28.08.2020 09:15 18,5 C 80 % 1009,1 hPa 0,0 mm SO 138 6,4 km/h (2 Bft)
28.08.2020 09:20 18,7 C 79 % 1009,0 hPa 0,0 mm SO 139 6,4 km/h (2 Bft)
28.08.2020 09:25 18,8 C 79 % 1009,0 hPa 0,0 mm O-SO 121 6,4 km/h (2 Bft)
28.08.2020 09:30 18,9 C 80 % 1009,0 hPa 0,0 mm O-SO 120 8,0 km/h (2 Bft)
28.08.2020 09:35 19,2 C 80 % 1009,0 hPa 0,0 mm O-SO 120 4,8 km/h (1 Bft)
28.08.2020 09:40 19,3 C 79 % 1008,9 hPa 0,0 mm O-SO 115 6,4 km/h (2 Bft)
28.08.2020 09:45 19,8 C 77 % 1008,8 hPa 0,0 mm S-SO 155 6,4 km/h (2 Bft)
28.08.2020 09:50 20,1 C 79 % 1008,7 hPa 0,0 mm S-SO 153 8,0 km/h (2 Bft)
28.08.2020 09:55 20,2 C 78 % 1008,7 hPa 0,0 mm O-SO 123 8,0 km/h (2 Bft)
28.08.2020 10:00 20,4 C 77 % 1008,6 hPa 0,0 mm O-SO 110 6,4 km/h (2 Bft)
28.08.2020 10:05 20,4 C 75 % 1008,5 hPa 0,0 mm S-SO 150 8,0 km/h (2 Bft)
28.08.2020 10:10 20,7 C 76 % 1008,4 hPa 0,0 mm O-SO 121 6,4 km/h (2 Bft)
28.08.2020 10:15 20,6 C 72 % 1008,4 hPa 0,0 mm O-SO 107 8,0 km/h (2 Bft)
28.08.2020 10:20 20,9 C 77 % 1008,2 hPa 0,0 mm O-SO 123 6,4 km/h (2 Bft)
28.08.2020 10:25 21,2 C 78 % 1008,1 hPa 0,0 mm O 96 9,7 km/h (2 Bft)
28.08.2020 10:30 21,4 C 76 % 1008,1 hPa 0,0 mm SO 144 9,7 km/h (2 Bft)
28.08.2020 10:35 21,6 C 75 % 1008,0 hPa 0,0 mm S-SO 148 11,3 km/h (2 Bft)
28.08.2020 10:40 21,5 C 73 % 1008,0 hPa 0,0 mm O-SO 119 8,0 km/h (2 Bft)
28.08.2020 10:45 21,8 C 74 % 1007,9 hPa 0,0 mm O-SO 119 8,0 km/h (2 Bft)
28.08.2020 10:50 22,4 C 71 % 1007,8 hPa 0,0 mm SO 128 8,0 km/h (2 Bft)
28.08.2020 10:55 22,2 C 69 % 1007,8 hPa 0,0 mm SO 130 8,0 km/h (2 Bft)
28.08.2020 11:00 22,6 C 71 % 1007,8 hPa 0,0 mm SO 128 8,0 km/h (2 Bft)
28.08.2020 11:05 22,8 C 72 % 1007,7 hPa 0,0 mm SO 133 8,0 km/h (2 Bft)
28.08.2020 11:10 23,0 C 74 % 1007,6 hPa 0,0 mm O 79 6,4 km/h (2 Bft)
28.08.2020 11:15 22,9 C 69 % 1007,5 hPa 0,0 mm O 88 9,7 km/h (2 Bft)
28.08.2020 11:20 23,2 C 71 % 1007,4 hPa 0,0 mm O 86 8,0 km/h (2 Bft)
28.08.2020 11:25 23,7 C 73 % 1007,3 hPa 0,0 mm O-SO 107 8,0 km/h (2 Bft)
28.08.2020 11:30 23,3 C 71 % 1007,2 hPa 0,0 mm O 90 8,0 km/h (2 Bft)
28.08.2020 11:35 23,3 C 66 % 1007,2 hPa 0,0 mm O-SO 122 6,4 km/h (2 Bft)
28.08.2020 11:40 23,8 C 69 % 1007,1 hPa 0,0 mm O-SO 116 6,4 km/h (2 Bft)
28.08.2020 11:45 24,1 C 65 % 1007,0 hPa 0,0 mm O 86 8,0 km/h (2 Bft)
28.08.2020 11:50 23,9 C 64 % 1006,9 hPa 0,0 mm O-SO 120 8,0 km/h (2 Bft)
28.08.2020 11:55 24,3 C 66 % 1006,9 hPa 0,0 mm SO 126 8,0 km/h (2 Bft)
28.08.2020 12:00 24,4 C 67 % 1006,8 hPa 0,0 mm O 90 11,3 km/h (2 Bft)
28.08.2020 12:05 24,5 C 58 % 1006,8 hPa 0,0 mm O 88 12,9 km/h (3 Bft)
28.08.2020 12:10 24,7 C 58 % 1006,7 hPa 0,0 mm SO 137 8,0 km/h (2 Bft)
28.08.2020 12:15 24,5 C 53 % 1006,7 hPa 0,0 mm O-SO 110 8,0 km/h (2 Bft)
28.08.2020 12:20 24,7 C 57 % 1006,7 hPa 0,0 mm O-SO 107 8,0 km/h (2 Bft)
28.08.2020 12:25 25,0 C 57 % 1006,6 hPa 0,0 mm O 80 11,3 km/h (2 Bft)
28.08.2020 12:30 24,7 C 52 % 1006,3 hPa 0,0 mm O 98 9,7 km/h (2 Bft)
28.08.2020 12:35 25,0 C 53 % 1006,2 hPa 0,0 mm O 86 11,3 km/h (2 Bft)
28.08.2020 12:40 25,2 C 56 % 1006,2 hPa 0,0 mm O-SO 114 9,7 km/h (2 Bft)
28.08.2020 12:45 25,1 C 52 % 1006,0 hPa 0,0 mm O-SO 113 8,0 km/h (2 Bft)
28.08.2020 12:50 25,2 C 54 % 1005,9 hPa 0,0 mm O-SO 114 8,0 km/h (2 Bft)
28.08.2020 12:55 25,3 C 51 % 1005,8 hPa 0,0 mm O-SO 123 11,3 km/h (2 Bft)
28.08.2020 13:00 25,4 C 58 % 1005,6 hPa 0,0 mm O 86 11,3 km/h (2 Bft)
28.08.2020 13:05 25,3 C 52 % 1005,5 hPa 0,0 mm SO 126 11,3 km/h (2 Bft)
28.08.2020 13:10 25,4 C 52 % 1005,4 hPa 0,0 mm S-SO 148 11,3 km/h (2 Bft)
28.08.2020 13:15 25,1 C 52 % 1005,4 hPa 0,0 mm O 88 12,9 km/h (3 Bft)
28.08.2020 13:20 24,7 C 53 % 1005,2 hPa 0,0 mm O-SO 117 14,5 km/h (3 Bft)
28.08.2020 13:25 24,7 C 58 % 1005,2 hPa 0,0 mm O-SO 117 12,9 km/h (3 Bft)
28.08.2020 13:30 24,4 C 52 % 1005,1 hPa 0,0 mm O 101 12,9 km/h (3 Bft)
28.08.2020 13:35 24,3 C 55 % 1005,0 hPa 0,0 mm O-SO 107 11,3 km/h (2 Bft)
28.08.2020 13:40 24,3 C 56 % 1004,9 hPa 0,0 mm O-SO 120 11,3 km/h (2 Bft)
28.08.2020 13:45 24,2 C 60 % 1004,8 hPa 0,0 mm O-SO 111 8,0 km/h (2 Bft)
28.08.2020 13:50 24,3 C 59 % 1004,7 hPa 0,0 mm O-NO 67 11,3 km/h (2 Bft)
28.08.2020 13:55 24,4 C 62 % 1004,6 hPa 0,0 mm O 83 11,3 km/h (2 Bft)
28.08.2020 14:00 24,3 C 61 % 1004,5 hPa 0,0 mm O-NO 68 14,5 km/h (3 Bft)
28.08.2020 14:05 24,2 C 61 % 1004,6 hPa 0,0 mm O-NO 61 12,9 km/h (3 Bft)
28.08.2020 14:10 23,9 C 63 % 1004,5 hPa 0,0 mm O-NO 77 16,1 km/h (3 Bft)
28.08.2020 14:15 23,9 C 61 % 1004,5 hPa 0,0 mm O-SO 111 14,5 km/h (3 Bft)
28.08.2020 14:20 24,4 C 61 % 1004,4 hPa 0,0 mm O 86 16,1 km/h (3 Bft)
28.08.2020 14:25 24,6 C 63 % 1004,4 hPa 0,0 mm O 97 14,5 km/h (3 Bft)
28.08.2020 14:30 24,3 C 62 % 1004,3 hPa 0,0 mm SO 128 12,9 km/h (3 Bft)
28.08.2020 14:35 24,4 C 59 % 1004,1 hPa 0,0 mm O 96 16,1 km/h (3 Bft)
28.08.2020 14:40 24,3 C 62 % 1004,0 hPa 0,0 mm O-SO 110 16,1 km/h (3 Bft)
28.08.2020 14:45 24,2 C 61 % 1004,0 hPa 0,0 mm SO 132 17,7 km/h (3 Bft)
28.08.2020 14:50 23,9 C 61 % 1003,9 hPa 0,0 mm O-SO 107 17,7 km/h (3 Bft)
28.08.2020 14:55 24,1 C 62 % 1003,7 hPa 0,0 mm O 86 17,7 km/h (3 Bft)
28.08.2020 15:00 24,3 C 62 % 1003,6 hPa 0,0 mm O 80 22,5 km/h (4 Bft)
28.08.2020 15:05 24,1 C 63 % 1003,6 hPa 0,0 mm O-SO 109 20,9 km/h (4 Bft)
28.08.2020 15:10 23,9 C 65 % 1003,5 hPa 0,0 mm SO 132 16,1 km/h (3 Bft)
28.08.2020 15:15 23,7 C 65 % 1003,5 hPa 0,0 mm O-SO 114 17,7 km/h (3 Bft)
28.08.2020 15:20 23,5 C 64 % 1003,4 hPa 0,0 mm O-SO 112 17,7 km/h (3 Bft)
28.08.2020 15:25 23,5 C 66 % 1003,4 hPa 0,0 mm O 101 16,1 km/h (3 Bft)
28.08.2020 15:30 23,7 C 65 % 1003,1 hPa 0,0 mm SO 134 19,3 km/h (3 Bft)
28.08.2020 15:35 23,7 C 66 % 1003,0 hPa 0,0 mm O-NO 74 20,9 km/h (4 Bft)
28.08.2020 15:40 23,8 C 66 % 1002,9 hPa 0,0 mm O 87 17,7 km/h (3 Bft)
28.08.2020 15:45 23,7 C 65 % 1002,9 hPa 0,0 mm O-SO 115 19,3 km/h (3 Bft)
28.08.2020 15:50 24,0 C 66 % 1002,9 hPa 0,0 mm O 88 17,7 km/h (3 Bft)
28.08.2020 15:55 23,8 C 65 % 1002,8 hPa 0,0 mm O-SO 105 17,7 km/h (3 Bft)
28.08.2020 16:00 23,5 C 65 % 1002,8 hPa 0,0 mm O-SO 113 16,1 km/h (3 Bft)
28.08.2020 16:05 23,3 C 66 % 1002,6 hPa 0,0 mm O 101 14,5 km/h (3 Bft)
28.08.2020 16:10 23,2 C 67 % 1002,6 hPa 0,0 mm O 92 14,5 km/h (3 Bft)
28.08.2020 16:15 23,1 C 68 % 1002,7 hPa 0,0 mm O-SO 119 16,1 km/h (3 Bft)
28.08.2020 16:20 23,1 C 69 % 1002,6 hPa 0,0 mm O-SO 110 14,5 km/h (3 Bft)
28.08.2020 16:25 23,0 C 69 % 1002,5 hPa 0,0 mm O-SO 103 11,3 km/h (2 Bft)
28.08.2020 16:30 22,9 C 70 % 1002,6 hPa 0,0 mm O-SO 117 9,7 km/h (2 Bft)
28.08.2020 16:35 22,8 C 70 % 1002,7 hPa 0,0 mm O-SO 105 9,7 km/h (2 Bft)
28.08.2020 16:40 22,7 C 71 % 1002,8 hPa 0,0 mm O-SO 105 3,2 km/h (1 Bft)
28.08.2020 16:45 22,7 C 71 % 1002,7 hPa 0,0 mm O-SO 105 3,2 km/h (1 Bft)
28.08.2020 16:50 22,7 C 73 % 1002,6 hPa 0,0 mm O-SO 105 1,6 km/h (1 Bft)
28.08.2020 16:55 22,6 C 75 % 1002,5 hPa 0,0 mm O-SO 105 0,0 km/h (0 Bft)
28.08.2020 17:00 22,6 C 75 % 1002,5 hPa 0,0 mm O-SO 105 0,0 km/h (0 Bft)
28.08.2020 17:05 22,6 C 75 % 1002,4 hPa 0,0 mm O-SO 105 1,6 km/h (1 Bft)
28.08.2020 17:10 22,4 C 76 % 1002,3 hPa 0,0 mm O-SO 105 4,8 km/h (1 Bft)
28.08.2020 17:15 22,3 C 75 % 1002,3 hPa 0,0 mm O-SO 105 3,2 km/h (1 Bft)
28.08.2020 17:20 22,1 C 74 % 1002,2 hPa 0,0 mm SO 143 6,4 km/h (2 Bft)
28.08.2020 17:25 22,0 C 74 % 1002,2 hPa 0,0 mm SO 143 4,8 km/h (1 Bft)
28.08.2020 17:30 21,9 C 74 % 1002,1 hPa 0,0 mm SO 143 3,2 km/h (1 Bft)
28.08.2020 17:35 21,9 C 76 % 1002,0 hPa 0,0 mm SO 140 3,2 km/h (1 Bft)
28.08.2020 17:40 21,8 C 76 % 1001,8 hPa 0,0 mm SO 140 3,2 km/h (1 Bft)
28.08.2020 17:45 21,9 C 76 % 1001,8 hPa 0,0 mm SO 140 3,2 km/h (1 Bft)
28.08.2020 17:50 21,9 C 78 % 1001,8 hPa 0,0 mm SO 140 4,8 km/h (1 Bft)
28.08.2020 17:55 21,8 C 77 % 1001,7 hPa 0,0 mm SO 140 4,8 km/h (1 Bft)
28.08.2020 18:00 21,7 C 77 % 1001,7 hPa 0,0 mm SO 140 3,2 km/h (1 Bft)
28.08.2020 18:05 21,6 C 77 % 1001,7 hPa 0,0 mm SO 140 3,2 km/h (1 Bft)
28.08.2020 18:10 21,6 C 78 % 1001,7 hPa 0,0 mm SO 140 0,0 km/h (0 Bft)
28.08.2020 18:15 21,5 C 78 % 1001,6 hPa 0,0 mm SO 140 0,0 km/h (0 Bft)
28.08.2020 18:20 21,5 C 78 % 1001,6 hPa 0,0 mm SO 140 3,2 km/h (1 Bft)
28.08.2020 18:25 21,4 C 77 % 1001,5 hPa 0,0 mm SO 140 4,8 km/h (1 Bft)
28.08.2020 18:30 21,3 C 77 % 1001,4 hPa 0,0 mm SO 140 1,6 km/h (1 Bft)
28.08.2020 18:35 21,4 C 79 % 1001,5 hPa 0,0 mm SO 140 0,0 km/h (0 Bft)
28.08.2020 18:40 21,3 C 79 % 1001,6 hPa 0,0 mm SO 140 0,0 km/h (0 Bft)
28.08.2020 18:45 21,3 C 79 % 1001,7 hPa 0,0 mm SO 140 0,0 km/h (0 Bft)
28.08.2020 18:50 21,3 C 78 % 1001,9 hPa 0,0 mm SW 234 4,8 km/h (1 Bft)
28.08.2020 18:55 21,4 C 77 % 1002,2 hPa 0,0 mm W 266 8,0 km/h (2 Bft)
28.08.2020 19:00 21,4 C 78 % 1002,7 hPa 0,0 mm W 273 12,9 km/h (3 Bft)
28.08.2020 19:05 21,4 C 77 % 1003,1 hPa 0,0 mm W 277 14,5 km/h (3 Bft)
28.08.2020 19:10 21,3 C 77 % 1003,4 hPa 0,0 mm W 281 22,5 km/h (4 Bft)
28.08.2020 19:15 21,4 C 77 % 1003,9 hPa 0,0 mm W-SW 254 20,9 km/h (4 Bft)
28.08.2020 19:20 21,4 C 77 % 1004,2 hPa 0,0 mm W 268 29,0 km/h (5 Bft)
28.08.2020 19:25 21,4 C 77 % 1004,3 hPa 0,0 mm W 271 37,0 km/h (5 Bft)
28.08.2020 19:30 21,3 C 78 % 1004,6 hPa 0,0 mm W 261 32,2 km/h (5 Bft)
28.08.2020 19:35 21,1 C 78 % 1004,8 hPa 0,0 mm W-SW 252 32,2 km/h (5 Bft)
28.08.2020 19:40 20,7 C 78 % 1005,0 hPa 0,0 mm W 266 32,2 km/h (5 Bft)
28.08.2020 19:45 20,4 C 79 % 1004,9 hPa 0,0 mm W 269 29,0 km/h (5 Bft)
28.08.2020 19:50 20,2 C 79 % 1005,0 hPa 0,0 mm W 275 20,9 km/h (4 Bft)
28.08.2020 19:55 20,0 C 79 % 1005,3 hPa 0,0 mm W-SW 258 19,3 km/h (3 Bft)
28.08.2020 20:00 19,9 C 80 % 1005,5 hPa 0,0 mm W-SW 250 17,7 km/h (3 Bft)
28.08.2020 20:05 19,7 C 80 % 1005,7 hPa 0,0 mm W-SW 250 11,3 km/h (2 Bft)
28.08.2020 20:10 19,6 C 81 % 1005,8 hPa 0,0 mm W 269 12,9 km/h (3 Bft)
28.08.2020 20:15 19,5 C 81 % 1005,9 hPa 0,0 mm W 279 11,3 km/h (2 Bft)
28.08.2020 20:20 19,4 C 81 % 1005,9 hPa 0,0 mm W 279 1,6 km/h (1 Bft)
28.08.2020 20:25 19,3 C 81 % 1006,0 hPa 0,0 mm W-SW 256 9,7 km/h (2 Bft)
28.08.2020 20:30 19,3 C 82 % 1006,0 hPa 0,0 mm W 267 12,9 km/h (3 Bft)
28.08.2020 20:35 19,2 C 82 % 1006,1 hPa 0,0 mm W-SW 257 11,3 km/h (2 Bft)
28.08.2020 20:40 19,2 C 82 % 1006,1 hPa 0,0 mm W-SW 249 9,7 km/h (2 Bft)
28.08.2020 20:45 19,1 C 82 % 1006,2 hPa 0,0 mm W 259 9,7 km/h (2 Bft)
28.08.2020 20:50 19,0 C 83 % 1006,2 hPa 0,0 mm W-SW 253 11,3 km/h (2 Bft)
28.08.2020 20:55 18,9 C 83 % 1006,3 hPa 0,0 mm W-SW 254 11,3 km/h (2 Bft)
28.08.2020 21:00 18,9 C 83 % 1005,9 hPa 0,0 mm W 263 8,0 km/h (2 Bft)
28.08.2020 21:05 18,8 C 83 % 1006,2 hPa 0,0 mm W 264 8,0 km/h (2 Bft)
28.08.2020 21:10 18,8 C 83 % 1006,3 hPa 0,2 mm W 265 8,0 km/h (2 Bft)
28.08.2020 21:15 18,7 C 83 % 1006,1 hPa 0,0 mm W 259 11,3 km/h (2 Bft)
28.08.2020 21:20 18,6 C 83 % 1006,0 hPa 0,0 mm W 265 8,0 km/h (2 Bft)
28.08.2020 21:25 18,6 C 84 % 1006,2 hPa 0,0 mm W 266 8,0 km/h (2 Bft)
28.08.2020 21:30 18,4 C 84 % 1006,3 hPa 0,0 mm W 266 4,8 km/h (1 Bft)
28.08.2020 21:35 18,4 C 84 % 1006,3 hPa 0,0 mm W 266 3,2 km/h (1 Bft)
28.08.2020 21:40 18,3 C 84 % 1006,3 hPa 0,0 mm W 266 3,2 km/h (1 Bft)
28.08.2020 21:45 18,2 C 84 % 1006,3 hPa 0,0 mm W 266 3,2 km/h (1 Bft)
28.08.2020 21:50 18,1 C 84 % 1006,4 hPa 0,0 mm W 266 0,0 km/h (0 Bft)
28.08.2020 21:55 18,0 C 84 % 1006,6 hPa 0,0 mm W 266 0,0 km/h (0 Bft)
28.08.2020 22:00 17,9 C 84 % 1006,6 hPa 0,0 mm W 266 0,0 km/h (0 Bft)
28.08.2020 22:05 17,9 C 84 % 1006,6 hPa 0,0 mm W 266 0,0 km/h (0 Bft)
28.08.2020 22:10 17,8 C 84 % 1006,6 hPa 0,0 mm W 266 0,0 km/h (0 Bft)
28.08.2020 22:15 17,7 C 85 % 1006,5 hPa 0,0 mm W 266 0,0 km/h (0 Bft)
28.08.2020 22:20 17,7 C 85 % 1006,5 hPa 0,0 mm W 266 0,0 km/h (0 Bft)
28.08.2020 22:25 17,7 C 85 % 1006,5 hPa 0,2 mm W 266 0,0 km/h (0 Bft)
28.08.2020 22:30 17,6 C 85 % 1006,5 hPa 0,0 mm W 266 0,0 km/h (0 Bft)
28.08.2020 22:35 17,6 C 85 % 1006,5 hPa 0,0 mm W 266 0,0 km/h (0 Bft)
28.08.2020 22:40 17,5 C 85 % 1006,3 hPa 0,0 mm W 266 0,0 km/h (0 Bft)
28.08.2020 22:45 17,4 C 85 % 1006,4 hPa 0,0 mm W 266 0,0 km/h (0 Bft)
28.08.2020 22:50 17,4 C 85 % 1006,4 hPa 0,0 mm W 266 0,0 km/h (0 Bft)
28.08.2020 22:55 17,4 C 85 % 1006,5 hPa 0,0 mm W 266 0,0 km/h (0 Bft)
28.08.2020 23:00 17,3 C 86 % 1006,5 hPa 0,0 mm W 266 0,0 km/h (0 Bft)
28.08.2020 23:05 17,3 C 86 % 1006,6 hPa 0,0 mm W 266 0,0 km/h (0 Bft)
28.08.2020 23:10 17,3 C 86 % 1006,5 hPa 0,0 mm W 266 0,0 km/h (0 Bft)
28.08.2020 23:15 17,2 C 86 % 1006,5 hPa 0,0 mm W 266 0,0 km/h (0 Bft)
28.08.2020 23:20 17,2 C 86 % 1006,4 hPa 0,0 mm W 266 0,0 km/h (0 Bft)
28.08.2020 23:25 17,2 C 86 % 1006,3 hPa 0,0 mm W 266 3,2 km/h (1 Bft)
28.08.2020 23:30 17,2 C 86 % 1006,2 hPa 0,2 mm W 266 4,8 km/h (1 Bft)
28.08.2020 23:35 17,1 C 87 % 1006,2 hPa 0,0 mm W 266 1,6 km/h (1 Bft)
28.08.2020 23:40 17,1 C 87 % 1005,9 hPa 0,0 mm W 266 0,0 km/h (0 Bft)
28.08.2020 23:45 17,1 C 87 % 1006,0 hPa 0,0 mm W 266 0,0 km/h (0 Bft)
28.08.2020 23:50 17,1 C 87 % 1006,0 hPa 0,2 mm W 266 0,0 km/h (0 Bft)
28.08.2020 23:55 17,0 C 87 % 1005,9 hPa 0,0 mm W 266 0,0 km/h (0 Bft)
_ Min-Zeit 06:35 12:55 18:30 - - - 00:05
Minimum _ 11,1 C 51 % 1001,4 hPa - - - 0,0 km/h (0 Bft)
_ Max-Zeit 13:00 07:20 00:00 21:10 - - 19:25
Maximum _ 25,4 C 90 % 1012,9 hPa 0,2 mm - - 37,0 km/h
W (5 Bft)
Durchschnitt _ 18,1 C 78 % 1007,4 hPa #0,8 mm S-SW - 6,1 km/h (2 Bft)